This is the latest recevied weather packets stored in our database for station/object ZS2JO. If no packets are shown the sender has not sent any weather packets the latest 10 day(s).
| Time | Temp. | Humidity | Pressure | Rain* | Wind** | Luminosity | Snow |
|---|---|---|---|---|---|---|---|
| 1778254493 | 13.89° C | 89% | 1020.6 hPa | 0 mm | - | 3 W/m² | - |
| 1778254189 | 14.44° C | 89% | 1020.5 hPa | 0 mm | - | 5 W/m² | - |
| 1778253886 | 14.44° C | 88% | 1020.6 hPa | 0 mm | - | 7 W/m² | - |
| 1778253582 | 14.44° C | 88% | 1020.6 hPa | 0 mm | - | 10 W/m² | - |
| 1778253279 | 14.44° C | 88% | 1020.5 hPa | 0 mm | - | 14 W/m² | - |
| 1778252976 | 15° C | 88% | 1020.7 hPa | 0 mm | - | 19 W/m² | - |
| 1778252672 | 15° C | 87% | 1020.7 hPa | 0 mm | - | 24 W/m² | - |
| 1778252368 | 15° C | 87% | 1020.6 hPa | 0 mm | - | 27 W/m² | - |
| 1778252065 | 15° C | 87% | 1020.8 hPa | 0 mm | - | 30 W/m² | - |
| 1778251761 | 15° C | 87% | 1020.3 hPa | 0 mm | - | 37 W/m² | - |
| 1778251460 | 15° C | 86% | 1020.5 hPa | 0 mm | - | 42 W/m² | - |
| 1778251157 | 15° C | 87% | 1020.5 hPa | 0 mm | - | 52 W/m² | - |
| 1778250854 | 15° C | 87% | 1020.4 hPa | 0 mm | - | 51 W/m² | - |
| 1778250550 | 15° C | 87% | 1020.7 hPa | 0 mm | - | 65 W/m² | - |
| 1778250248 | 15.56° C | 86% | 1020.4 hPa | 0 mm | - | 70 W/m² | - |
| 1778249944 | 15.56° C | 86% | 1020.4 hPa | 0 mm | - | 88 W/m² | - |
| 1778249641 | 15.56° C | 86% | 1020.4 hPa | 0 mm | - | 104 W/m² | - |
| 1778249338 | 15.56° C | 85% | 1020.4 hPa | 0 mm | - | 135 W/m² | - |
| 1778249035 | 15.56° C | 86% | 1020.4 hPa | 0 mm | - | 124 W/m² | - |
| 1778248731 | 15.56° C | 86% | 1020.4 hPa | 0 mm | - | 139 W/m² | - |
| 1778248428 | 15° C | 85% | 1020.3 hPa | 0 mm | - | 95 W/m² | - |
| 1778248124 | 15° C | 84% | 1020.5 hPa | 0 mm | - | 107 W/m² | - |
| 1778247821 | 15.56° C | 84% | 1020.4 hPa | 0 mm | - | 105 W/m² | - |
| 1778247517 | 15.56° C | 82% | 1020.2 hPa | 0 mm | - | 122 W/m² | - |
| 1778247215 | 15.56° C | 81% | 1020.3 hPa | 0 mm | - | 145 W/m² | - |
* Rain latest hour (hover to see other rain measurements)
** Current wind speed in m/s (hover to see current wind gust speed)